Regional Weather Roundup
Issued by NWS

Home | Current Version | Previous Version | Text Only | Print | Product List | Glossary Off
Versions: 1 2 3 4 5 6 7 8 9 10 11 12 13 14 15 16 17 18 19 20 21 22 23 24 25 26 27 28 29 30 31 32 33 34 35 36 37 38 39 40 41 42 43 44 45 46 47 48 49 50

000
ASUS43 KFSD 261410
RWRSD

WEATHER ROUNDUP FOR SOUTH DAKOTA
NATIONAL WEATHER SERVICE SIOUX FALLS SD
800 AM CST WED NOV 26 2014

NOTE: "FAIR" INDICATES FEW OR NO CLOUDS BELOW 12,000 FEET WITH NO
SIGNIFICANT WEATHER AND/OR OBSTRUCTIONS TO VISIBILITY.


SDZ001>005-009-010-012>017-261500-
NORTHWEST AND NORTH CENTRAL SOUTH DAKOTA

CITY           SKY/WX    TMP DP  RH WIND       PRES   REMARKS
BUFFALO          N/A     25  19  78 W3        30.13R
FAITH            N/A     20  17  88 NE5       30.21S WCI  13
MOBRIDGE       CLOUDY    13   8  81 E6        30.26R WCI   4
$$

SDZ012>016-024>037-041>051-057-063-072>074-261500-
SOUTHWEST AND SOUTH CENTRAL SOUTH DAKOTA

CITY           SKY/WX    TMP DP  RH WIND       PRES   REMARKS
RAPID CTY ARPT CLOUDY    25  20  81 CALM      30.20R
PIERRE         CLOUDY    18  13  80 N14       30.28R WCI   4
CUSTER         CLOUDY    21  13  71 VRB6      30.08R WCI  13
ELLSWORTH AFB  LGT SNOW  25  21  86 N6        30.20  VSB 1   WCI  18
PHILIP         CLOUDY    23  17  78 NE3       30.27R
PINE RIDGE     CLOUDY    25  19  78 CALM      30.21R
SPEARFISH      LGT SNOW  25  23  93 CALM      30.17S
WINNER         CLOUDY    21  15  78 N22G29    30.23R WCI   5
$$

SDZ004>011-016>023-039-040-261500-
NORTHEAST SOUTH DAKOTA

CITY           SKY/WX    TMP DP  RH WIND       PRES   REMARKS
ABERDEEN       PTCLDY     6  -1  73 N17       30.30R WCI -13
WATERTOWN      MOCLDY    13   8  81 N18       30.14R WCI  -4
SISSETON         N/A      7   4  87 N21       30.24R WCI -13
$$

SDZ017-020-022-023-036>040-048>070-261500-
SOUTHEAST SOUTH DAKOTA

CITY           SKY/WX    TMP DP  RH WIND       PRES   REMARKS
SIOUX FALLS    FLURRIES  24  20  84 N17       30.06R WCI  11
HURON          LGT SNOW  12   8  84 N24G31    30.23R FOG     WCI  -8
CHAMBERLAIN    CLOUDY    19  14  81 N20G26    30.25R WCI   3
MITCHELL       LGT SNOW  17  13  84 N26G35    30.20R FOG     WCI  -2
YANKTON        CLOUDY   N/A N/A N/A N24G32    30.08R
$$

ABBREVIATIONS USED IN REMARKS
   TC - TEMPERATURE IN CELSIUS
  WCI - WIND CHILL INDEX
   HX - HEAT INDEX
  VSB - VISIBILITY




USA.gov is the U.S. government's official web portal to all federal, state and local government web resources and services.